TimeCDT,TemperatureF,Dew PointF,Humidity,Sea Level PressureIn,VisibilityMPH,Wind Direction,Wind SpeedMPH,Gust SpeedMPH,PrecipitationIn,Events,Conditions,WindDirDegrees,DateUTC
12:15 AM,69.1,60.1,73,29.97,10.0,SSW,4.6,-,N/A,,Clear,200,2013-05-17 05:15:00
12:35 AM,68.0,60.1,76,29.98,10.0,SW,5.8,-,N/A,,Clear,220,2013-05-17 05:35:00
12:55 AM,68.2,60.6,77,29.97,10.0,SSW,3.5,-,N/A,,Clear,200,2013-05-17 05:55:00
1:15 AM,66.7,59.5,78,29.97,10.0,SSE,3.5,-,N/A,,Scattered Clouds,150,2013-05-17 06:15:00
1:35 AM,65.7,60.1,82,29.97,10.0,South,3.5,-,N/A,,Clear,190,2013-05-17 06:35:00
1:55 AM,66.4,60.8,82,29.97,10.0,South,4.6,-,N/A,,Clear,190,2013-05-17 06:55:00
2:15 AM,65.8,60.8,84,29.97,10.0,SSW,4.6,-,N/A,,Scattered Clouds,200,2013-05-17 07:15:00
2:35 AM,65.7,60.8,84,29.97,10.0,South,3.5,-,N/A,,Scattered Clouds,190,2013-05-17 07:35:00
2:55 AM,64.8,60.1,85,29.98,7.0,Calm,Calm,-,N/A,,Clear,0,2013-05-17 07:55:00
3:15 AM,64.0,60.1,87,29.98,7.0,ENE,3.5,-,N/A,,Scattered Clouds,60,2013-05-17 08:15:00
3:35 AM,63.5,59.7,87,29.98,7.0,NE,3.5,-,N/A,,Mostly Cloudy,50,2013-05-17 08:35:00
3:55 AM,64.0,60.3,87,29.98,7.0,East,3.5,-,N/A,,Mostly Cloudy,80,2013-05-17 08:55:00
4:15 AM,64.6,60.4,86,29.99,7.0,Calm,Calm,-,N/A,,Mostly Cloudy,0,2013-05-17 09:15:00
4:35 AM,64.8,60.6,86,29.98,7.0,Calm,Calm,-,N/A,,Scattered Clouds,0,2013-05-17 09:35:00
4:55 AM,63.9,60.3,88,29.99,7.0,Calm,Calm,-,N/A,,Clear,0,2013-05-17 09:55:00
5:15 AM,63.5,60.1,89,29.99,7.0,SE,4.6,-,N/A,,Clear,130,2013-05-17 10:15:00
5:35 AM,63.5,60.3,89,29.99,4.0,ESE,3.5,-,N/A,,Clear,120,2013-05-17 10:35:00
5:55 AM,62.8,59.5,89,30.00,4.0,Calm,Calm,-,N/A,,Clear,0,2013-05-17 10:55:00
6:15 AM,63.0,60.3,91,30.01,3.0,Calm,Calm,-,N/A,,Clear,0,2013-05-17 11:15:00
6:35 AM,63.0,59.9,90,30.01,4.0,Calm,Calm,-,N/A,,Clear,0,2013-05-17 11:35:00
6:55 AM,64.8,61.3,89,30.01,4.0,East,3.5,-,N/A,,Clear,100,2013-05-17 11:55:00
7:15 AM,66.0,61.9,86,30.02,4.0,Calm,Calm,-,N/A,,Clear,0,2013-05-17 12:15:00
7:35 AM,68.2,62.4,82,30.02,5.0,East,3.5,-,N/A,,Haze,90,2013-05-17 12:35:00
7:55 AM,70.2,62.4,76,30.02,5.0,SE,4.6,-,N/A,,Haze,130,2013-05-17 12:55:00
8:35 AM,73.6,62.6,68,30.03,7.0,ESE,5.8,-,N/A,,Clear,120,2013-05-17 13:35:00
8:55 AM,74.5,62.4,66,30.02,10.0,SE,8.1,-,N/A,,Clear,140,2013-05-17 13:55:00
9:15 AM,76.3,62.2,62,30.02,10.0,SE,5.8,-,N/A,,Clear,140,2013-05-17 14:15:00
9:35 AM,77.0,62.1,60,30.01,10.0,ESE,9.2,-,N/A,,Clear,120,2013-05-17 14:35:00
10:15 AM,79.9,60.8,52,30.01,10.0,SE,8.1,17.3,N/A,,Clear,130,2013-05-17 15:15:00
10:35 AM,79.9,59.7,50,30.01,10.0,SE,13.8,18.4,N/A,,Clear,140,2013-05-17 15:35:00
11:15 AM,81.1,57.6,44,30.01,10.0,SSE,12.7,19.6,N/A,,Scattered Clouds,160,2013-05-17 16:15:00
11:35 AM,81.7,55.0,40,30.01,10.0,SSE,11.5,17.3,N/A,,Clear,160,2013-05-17 16:35:00
11:55 AM,81.3,55.6,41,30.00,10.0,SSE,12.7,17.3,N/A,,Clear,160,2013-05-17 16:55:00
12:15 PM,80.4,57.4,45,30.01,10.0,SSE,11.5,-,N/A,,Scattered Clouds,150,2013-05-17 17:15:00
12:56 PM,78.8,60.8,54,30.01,10.0,SSW,5.8,-,N/A,Rain,Light Rain,210,2013-05-17 17:56:00
1:16 PM,75.2,62.6,65,30.00,10.0,Calm,Calm,-,N/A,Rain,Light Rain,0,2013-05-17 18:16:00
1:36 PM,78.8,59.0,51,29.99,10.0,South,12.7,-,N/A,,Clear,180,2013-05-17 18:36:00
1:56 PM,80.6,59.0,48,29.99,10.0,South,10.4,-,N/A,,Clear,190,2013-05-17 18:56:00
2:16 PM,80.6,59.0,48,29.99,10.0,South,10.4,16.1,N/A,,Clear,180,2013-05-17 19:16:00
2:35 PM,80.4,58.6,47,29.98,10.0,South,8.1,-,N/A,,Clear,190,2013-05-17 19:35:00
2:55 PM,81.3,58.3,45,29.98,10.0,SSW,11.5,-,N/A,,Clear,200,2013-05-17 19:55:00
3:15 PM,81.3,57.7,44,29.98,10.0,South,11.5,16.1,N/A,,Clear,190,2013-05-17 20:15:00
3:35 PM,81.7,56.5,42,29.97,10.0,SSW,12.7,16.1,N/A,,Clear,210,2013-05-17 20:35:00
4:15 PM,81.5,55.9,41,29.96,10.0,SW,6.9,-,N/A,,Clear,220,2013-05-17 21:15:00
4:35 PM,82.8,53.4,36,29.96,10.0,SSW,8.1,-,N/A,,Clear,210,2013-05-17 21:35:00
4:55 PM,83.8,50.2,31,29.96,10.0,South,15.0,19.6,N/A,,Scattered Clouds,170,2013-05-17 21:55:00
5:39 PM,80.6,53.6,39,29.96,10.0,South,8.1,-,N/A,,Clear,190,2013-05-17 22:39:00
5:56 PM,82.4,53.6,37,29.97,10.0,South,11.5,-,N/A,,Scattered Clouds,190,2013-05-17 22:56:00
6:16 PM,80.6,55.4,42,29.97,10.0,SSE,11.5,-,N/A,,Scattered Clouds,160,2013-05-17 23:16:00
6:35 PM,79.2,54.9,43,29.98,10.0,South,10.4,-,N/A,,Scattered Clouds,180,2013-05-17 23:35:00
6:39 PM,78.8,53.6,42,29.98,10.0,South,10.4,-,N/A,,Clear,170,2013-05-17 23:39:00
6:55 PM,79.0,53.6,41,29.98,10.0,SSE,8.1,-,N/A,,Scattered Clouds,160,2013-05-17 23:55:00
7:15 PM,78.1,55.8,46,29.99,10.0,SSE,8.1,-,N/A,,Mostly Cloudy,160,2013-05-18 00:15:00
7:35 PM,76.1,59.5,56,29.99,10.0,South,10.4,-,N/A,,Scattered Clouds,170,2013-05-18 00:35:00
7:55 PM,75.2,59.7,58,30.00,10.0,SSE,6.9,-,N/A,,Scattered Clouds,160,2013-05-18 00:55:00
8:15 PM,74.1,59.2,59,30.00,10.0,East,3.5,-,N/A,,Scattered Clouds,90,2013-05-18 01:15:00
8:35 PM,72.7,58.5,61,30.01,10.0,East,4.6,-,N/A,,Scattered Clouds,80,2013-05-18 01:35:00
8:55 PM,72.0,61.5,70,30.01,10.0,East,5.8,-,N/A,,Scattered Clouds,100,2013-05-18 01:55:00
9:15 PM,72.0,59.4,64,30.02,10.0,SE,5.8,-,N/A,,Clear,130,2013-05-18 02:15:00
9:35 PM,72.1,59.5,64,30.03,10.0,SE,6.9,-,N/A,,Mostly Cloudy,140,2013-05-18 02:35:00
9:55 PM,70.2,59.5,69,30.03,10.0,SE,4.6,-,N/A,,Scattered Clouds,130,2013-05-18 02:55:00
10:15 PM,69.8,59.9,71,30.03,10.0,SE,4.6,-,N/A,,Clear,140,2013-05-18 03:15:00
10:35 PM,69.4,59.9,72,30.03,10.0,SSE,4.6,-,N/A,,Clear,160,2013-05-18 03:35:00
10:55 PM,68.5,59.9,74,30.03,10.0,ESE,3.5,-,N/A,,Clear,120,2013-05-18 03:55:00
11:15 PM,68.0,59.9,75,30.03,10.0,Calm,Calm,-,N/A,,Clear,0,2013-05-18 04:15:00
11:35 PM,67.3,59.7,77,30.03,10.0,ESE,3.5,-,N/A,,Clear,110,2013-05-18 04:35:00
11:55 PM,67.1,59.9,78,30.02,10.0,East,3.5,-,N/A,,Clear,100,2013-05-18 04:55:00